Flag for Romania Weather past 2 weeks in Constanța, Romania

Now
67 °F

Partly sunny.


Feels Like: 67 °F
Forecast: 58 / 77 °F
Wind: 2 mph from Northeast

Location: Constanta

Current Time: May 25, 2015 at 5:50:40 PM

Latest Report: May 25, 2015 at 5:00 PM


Visibility: 6 mi

Pressure: 29.81 "Hg

Humidity: 74%

Dew point: 58 °F

Location of ConstanțaLocation

Historic Weather in Constanța — Graph

°F

Constanța temperature yesterday

Maximum temperature yesterday: 72 °F (at 4:00 PM)
Minimum temperature yesterday: 63 °F (at 5:00 AM)
Average temperature yesterday: 67 °F

Past Weeks' High & Low Weather Summary

 TemperatureHumidityPressure
High76 °F (May 14, 3:00 PM)98% (May 18, 11:00 PM)30.23 "Hg (May 18, 11:00 PM)
Low53 °F (May 11, 5:00 AM)27% (May 13, 8:00 PM)29.72 "Hg (May 14, 9:00 PM)
Average65 °F72%29.98 "Hg
* Reported May 10 4:00 PM — May 25 4:00 PM, Constanța, Weather by CustomWeather, © 2015

Note: Actual official high and low records may vary slightly from our data, if they occured in-between our weather recording intervals... More about our weather records

Advertising

Constanța weather history for previous 24 hours

 ConditionsComfort  
Time TempWeatherWind HumidityBarometerVisibility
4:00 PM
Mon, May 25
66 °FOvercast.2 mph75%29.82 "Hg6 mi
3:00 PM66 °FOvercast.1 mph77%29.83 "Hg6 mi
2:00 PM65 °FOvercast.2 mph80%29.85 "Hg6 mi
1:00 PM67 °FPartly sunny.3 mph76%29.85 "Hg6 mi
12:00 PM67 °FPartly sunny.2 mph74%29.85 "Hg6 mi
11:00 AM66 °FOvercast.2 mph81%29.86 "Hg6 mi
10:00 AM66 °FPartly sunny.2 mph80%29.85 "Hg6 mi
9:00 AM66 °FPartly sunny.2 mph81%29.85 "Hg6 mi
8:00 AM65 °FPartly sunny.1 mph86%29.82 "Hg6 mi
7:00 AM64 °FPartly sunny.1 mph94%29.82 "Hg6 mi
6:00 AM62 °FFog.1 mph96%29.82 "Hg2 mi
5:00 AM60 °FPassing clouds.1 mph96%29.82 "Hg6 mi
4:00 AM61 °FPassing clouds.1 mph96%29.82 "Hg6 mi
3:00 AM62 °FPassing clouds.1 mph94%29.82 "Hg6 mi
2:00 AM64 °FPassing clouds.1 mph91%29.83 "Hg6 mi
1:00 AM65 °FPassing clouds.1 mph88%29.83 "Hg6 mi
11:00 PM
Sun, May 24
66 °FPassing clouds.1 mph90%29.82 "Hg6 mi
10:00 PM66 °FPassing clouds.1 mph90%29.82 "Hg6 mi
9:00 PM66 °FPassing clouds.1 mph90%29.81 "Hg6 mi
8:00 PM68 °FPartly sunny.1 mph86%29.82 "Hg6 mi
7:00 PM69 °FPartly sunny.1 mph79%29.81 "Hg6 mi
6:00 PM69 °FPartly sunny.2 mph73%29.83 "Hg6 mi
5:00 PM70 °FScattered clouds.2 mph73%29.84 "Hg6 mi
Weather by CustomWeather, © 2015

See weather overviewHow to use our weather pages